Weather History for KOLS - February, 2014

Change the Weather History Date:

Friday, February 14, 2014

  Actual Average (KTUS) Record (KTUS)
Temperature  
Mean Temperature 62 °F 55 °F  
Max Temperature 84 °F 68 °F 92 °F (1957)
Min Temperature 41 °F 42 °F 24 °F (1908)
Degree Days  
Heating Degree Days 2 10  
Month to date heating degree days 148  
Since 1 July heating degree days 1142  
Cooling Degree Days 0 0  
Month to date cooling degree days 0  
Year to date cooling degree days 1  
Growing Degree Days 12 (Base 50)    
Moisture  
Dew Point 20 °F    
Average Humidity 25    
Maximum Humidity 47    
Minimum Humidity 8    
Precipitation  
Precipitation 0.00 in 0.03 in 0.67 in (1954)
Month to date precipitation 0.44  
Year to date precipitation 1.38  
Sea Level Pressure  
Sea Level Pressure 29.99 in    
Wind  
Wind Speed 4 mph (NNE)    
Max Wind Speed 10 mph    
Max Gust Speed -    
Visibility 10 miles    
Events      
T = Trace of Precipitation, MM = Missing Value Source: NWS Daily Summary

Daily Weather History Graph

Daily Weather History Graph

Search for Another Location

Airport or City:

Trip Planner

Search our weather history database for the weather conditions in past years. The results will help you decide how hot, cold, wet, or windy it might be!

Date:

Astronomy

Feb. 14, 2014 Rise Set
Actual Time 7:05 AM MST 6:09 PM MST
Civil Twilight 6:40 AM MST 6:34 PM MST
Nautical Twilight 6:12 AM MST 7:03 PM MST
Astronomical Twilight 5:44 AM MST 7:31 PM MST
Moon 6:13 PM MST (2/14) 6:36 AM MST (2/14)
Length of Visible Light 11h 53m
Length of Day
11h 04m
Full, 100% of the Moon is Illuminated
Feb 14
Full
Feb 14
Full
Feb 22
Last Quarter
Mar 1
New
Mar 8
First Quarter

Hourly Weather History & Observations

Time (MST) Temp. Windchill Dew Point Humidity Pressure Visibility Wind Dir Wind Speed Gust Speed Precip Events Conditions
12:54 AM 48.9 °F - 21.9 °F 35% 29.98 in 10.0 mi East 5.8 mph - N/A   Clear
1:54 AM 48.9 °F - 21.9 °F 35% 29.96 in 10.0 mi Calm Calm - N/A   Clear
2:54 AM 45.0 °F - 21.9 °F 40% 29.97 in 10.0 mi Calm Calm - N/A   Clear
3:54 AM 44.1 °F 42.5 °F 23.0 °F 43% 29.97 in 10.0 mi ENE 3.5 mph - N/A   Clear
4:54 AM 43.0 °F - 21.9 °F 43% 29.99 in 10.0 mi Calm Calm - N/A   Clear
5:54 AM 41.0 °F 38.0 °F 21.9 °F 47% 30.00 in 10.0 mi ENE 4.6 mph - N/A   Clear
6:54 AM 41.0 °F 38.0 °F 21.9 °F 47% 30.03 in 10.0 mi East 4.6 mph - N/A   Clear
7:54 AM 45.0 °F - 23.0 °F 42% 30.05 in 10.0 mi Calm Calm - N/A   Clear
8:54 AM 53.1 °F - 23.0 °F 31% 30.06 in 10.0 mi Calm Calm - N/A   Clear
9:54 AM 63.0 °F - 23.0 °F 22% 30.06 in 10.0 mi South 4.6 mph - N/A   Clear
10:54 AM 69.1 °F - 23.0 °F 18% 30.05 in 10.0 mi SW 3.5 mph - N/A   Clear
11:54 AM 73.9 °F - 21.0 °F 14% 30.01 in 10.0 mi Variable 4.6 mph - N/A   Clear
12:54 PM 79.0 °F - 21.0 °F 12% 29.97 in 10.0 mi Calm Calm - N/A   Clear
1:54 PM 82.0 °F - 19.0 °F 10% 29.94 in 10.0 mi West 4.6 mph - N/A   Clear
2:54 PM 82.9 °F - 17.1 °F 9% 29.94 in 10.0 mi West 6.9 mph - N/A   Clear
3:54 PM 84.0 °F - 19.0 °F 9% 29.93 in 10.0 mi Variable 4.6 mph - N/A   Clear
4:54 PM 82.0 °F - 16.0 °F 8% 29.93 in 10.0 mi NW 8.1 mph - N/A   Clear
5:54 PM 78.1 °F - 16.0 °F 10% 29.95 in 10.0 mi NW 10.4 mph - N/A   Clear
6:54 PM 70.0 °F - 18.0 °F 14% 29.98 in 10.0 mi North 4.6 mph - N/A   Clear
7:54 PM 64.0 °F - 17.1 °F 16% 29.99 in 10.0 mi NNE 5.8 mph - N/A   Clear
8:54 PM 62.1 °F - 17.1 °F 18% 30.00 in 10.0 mi NNE 4.6 mph - N/A   Clear
9:54 PM 61.0 °F - 18.0 °F 19% 29.99 in 10.0 mi Calm Calm - N/A   Clear
10:54 PM 52.0 °F - 16.0 °F 24% 30.01 in 10.0 mi NE 4.6 mph - N/A   Clear
11:54 PM 50.0 °F - 17.1 °F 27% 30.00 in 10.0 mi East 9.2 mph - N/A   Clear